Wind_Gust
18 15 16 15 14 15 16 16 14 14 13 12 12 11 11 11 11 12 11 10 10 11 11 10 10 11 11 10 10 10 10 9 10 9 10 12 12 12 14 12 11 11
17 15 14 14 14 14 13 14 15 15 14 12 12 12 10 11 11 12 12 11 11 11 11 11 12 13 13 12 9 11 10 10 11 9 12 12 11 12 13 11 11 10
16 16 15 15 17 15 15 13 13 13 14 13 12 12 12 11 13 11 10 10 12 12 11 10 12 13 14 12 9 9 9 9 10 9 11 11 11 12 10 9 10 9
18 17 16 15 16 17 16 16 13 12 12 13 12 13 12 12 12 11 10 12 11 10 11 12 12 12 11 9 9 10 10 10 9 8 10 10 10 11 10 9 10 10
18 17 16 16 16 16 16 16 15 14 13 13 12 11 13 13 12 10 10 11 11 12 14 14 11 11 10 11 10 11 9 11 10 10 11 11 9 10 9 10 9 10
17 17 17 18 17 17 16 15 15 15 15 13 12 12 13 12 12 11 11 11 11 12 13 14 13 10 10 11 11 10 10 10 10 10 10 10 9 8 9 10 10 10
19 19 18 18 18 16 15 15 14 14 14 13 13 12 12 12 11 12 12 11 11 12 13 13 12 11 10 10 10 10 9 9 9 9 11 9 9 9 9 9 10 10
19 18 19 18 18 17 15 16 14 14 14 13 13 12 12 13 12 11 10 11 12 12 12 12 11 11 9 9 11 11 9 8 10 10 9 9 8 8 8 9 9 11
20 19 19 18 19 17 16 16 16 14 14 15 14 14 13 13 12 11 11 11 11 12 12 11 11 10 9 10 9 9 10 9 9 9 10 10 10 10 10 9 8 8
20 20 20 19 19 17 17 16 17 15 14 14 14 14 16 12 10 11 11 11 12 11 11 10 10 10 11 9 9 8 9 10 9 9 9 9 9 9 9 10 9 8
21 21 21 20 18 17 17 18 17 16 15 15 14 13 12 12 11 11 12 12 13 13 13 11 11 12 11 9 8 8 9 10 10 8 8 9 8 8 9 8 7 7
21 20 21 20 18 18 19 18 17 16 16 14 14 14 13 12 12 12 13 13 12 13 12 12 12 11 11 10 10 9 10 8 7 8 8 8 8 8 9 8 8 8
21 20 20 19 19 19 18 18 17 16 16 16 14 14 14 13 12 12 11 12 13 12 13 12 12 11 11 10 10 9 8 8 10 10 10 10 8 9 10 11 12 12
19 19 19 19 19 19 18 17 16 16 15 14 14 15 14 14 14 13 11 12 12 12 12 11 11 11 11 11 10 9 9 10 10 11 10 10 10 11 12 13 12 11
18 18 17 18 20 19 18 16 16 15 14 14 14 14 12 13 12 12 13 12 12 11 12 11 12 12 11 10 11 11 10 11 10 11 12 13 12 12 12 13 11 10
19 17 19 20 20 19 17 16 16 15 15 15 15 14 12 12 12 12 12 12 14 12 11 11 11 10 11 13 10 12 11 11 11 12 12 13 14 13 12 11 9 8
20 21 20 21 20 18 16 17 16 16 15 15 14 13 12 11 12 12 11 13 13 13 12 10 10 10 14 15 15 14 11 11 12 12 12 14 13 13 13 11 8 9
21 20 20 20 19 18 17 16 15 16 16 15 14 12 11 11 12 10 11 11 12 13 11 9 11 10 16 16 15 14 11 13 11 12 13 14 13 13 12 12 13 12
20 21 21 20 19 19 17 16 16 17 16 15 14 11 11 13 11 10 10 10 12 13 11 13 11 11 16 15 14 15 15 12 10 12 14 14 14 15 16 14 14 13
21 21 21 20 19 19 17 17 17 16 15 14 13 12 14 13 11 11 11 10 12 13 13 13 11 10 16 14 13 13 15 11 11 12 13 15 16 17 16 14 12 12
23 22 21 20 20 19 18 17 17 16 15 14 14 15 16 16 15 13 11 11 12 14 14 13 11 11 15 14 12 12 13 10 11 11 12 13 13 12 12 12 12 13
22 21 20 20 20 19 19 18 16 16 16 14 14 12 12 10 8 11 12 12 13 15 15 12 11 12 15 13 12 10 10 10 12 11 10 11 11 10 11 11 11 12
21 21 21 22 21 21 21 19 16 16 13 14 15 14 13 12 12 11 12 14 14 14 15 13 11 11 15 14 12 9 8 9 10 10 9 9 8 8 9 8 8 10
21 21 22 22 22 22 21 19 16 15 16 15 17 16 14 13 12 12 11 14 15 15 16 15 13 11 14 13 12 9 6 10 10 10 9 10 9 7 8 10 10 12
22 21 22 22 22 20 21 20 20 19 17 16 16 14 13 12 12 12 11 12 15 16 15 18 14 11 12 14 13 9 6 6 10 10 9 8 9 8 7 10 8 9
20 21 20 22 22 20 20 20 17 17 19 19 17 16 15 14 13 13 12 12 16 16 15 16 16 12 12 14 12 10 6 6 7 11 11 10 8 9 8 9 8 8
Wind_Speed
10 8 9 7 7 7 8 9 7 8 6 5 6 6 6 6 6 7 7 6 6 7 7 6 7 7 6 6 5 5 6 6 5 5 6 7 7 7 8 7 6 6
9 8 7 7 7 6 7 7 8 8 7 5 5 6 5 6 6 7 7 7 6 7 7 7 7 7 8 7 5 6 6 6 6 4 7 8 7 8 8 7 6 6
9 9 9 9 9 9 8 7 7 7 7 6 6 5 6 5 6 6 6 6 6 6 6 6 6 6 8 8 6 5 5 5 6 4 6 7 6 7 6 6 6 6
9 9 9 9 9 10 9 8 7 7 6 7 6 5 6 6 6 6 6 7 7 6 6 7 7 6 7 6 5 5 6 5 4 5 6 6 6 6 6 5 6 5
10 10 9 9 9 10 9 9 9 8 8 7 7 6 7 7 6 5 6 6 6 7 8 8 6 6 5 6 6 6 5 6 5 6 7 7 6 6 5 5 5 6
9 10 10 10 10 10 9 9 9 9 8 8 7 6 7 7 6 6 6 6 6 7 7 8 8 5 5 6 6 6 6 6 5 5 6 6 6 5 4 4 5 6
11 11 11 10 10 9 9 9 8 8 8 7 7 7 7 7 7 6 6 6 6 6 7 8 8 7 6 6 6 6 6 6 5 6 7 5 6 5 4 5 5 6
12 11 11 10 11 10 9 8 8 8 8 8 8 7 7 8 7 6 6 6 7 7 7 7 6 7 6 6 7 7 6 4 6 6 6 6 5 5 5 4 5 7
12 11 11 12 12 10 9 9 8 8 8 9 8 8 7 7 7 7 7 7 6 6 7 7 6 6 6 6 6 5 6 6 5 5 6 6 6 6 6 5 5 5
12 12 13 12 11 10 10 9 9 8 8 8 8 8 9 7 6 7 7 7 7 7 7 6 6 6 7 6 5 5 6 6 6 6 6 6 6 5 5 5 5 5
13 12 12 12 11 10 10 10 10 9 8 9 8 8 7 7 7 7 7 7 7 7 7 6 6 7 7 6 5 5 6 6 6 5 5 5 5 5 6 5 4 5
13 13 13 13 11 10 11 10 10 9 9 8 8 8 7 7 7 7 7 7 6 6 6 7 7 7 6 6 6 6 6 5 5 5 5 5 5 5 5 4 4 5
12 12 12 12 11 11 10 10 10 9 10 9 7 8 8 8 7 7 7 7 6 6 6 7 7 7 6 6 6 6 5 5 6 6 6 6 5 6 6 7 6 6
11 11 11 11 10 10 10 10 9 9 9 8 7 8 8 7 7 8 7 6 6 6 6 7 6 6 6 6 5 5 6 6 6 7 7 6 7 7 7 7 6 6
11 10 10 11 10 10 10 10 9 9 8 8 7 8 7 7 7 7 8 7 6 7 7 6 7 7 6 6 6 6 7 7 6 7 7 8 8 7 6 6 6 5
11 10 10 11 11 10 10 10 9 9 9 8 8 8 7 7 7 7 7 7 7 7 6 6 6 5 8 11 9 7 7 6 6 7 7 8 8 8 6 6 5 5
11 11 11 11 10 10 10 10 10 9 9 9 8 7 7 7 7 7 5 6 7 7 7 6 6 6 12 13 13 12 8 7 7 7 7 8 8 8 7 7 5 5
11 12 12 11 10 10 11 10 9 10 10 9 8 7 6 7 7 6 6 6 6 6 6 5 5 9 14 14 13 13 10 8 7 7 7 8 8 8 7 7 8 7
11 12 12 11 10 10 10 10 10 10 10 9 9 7 7 8 7 6 6 6 7 7 6 5 4 8 13 13 12 13 13 9 6 7 8 8 8 9 9 8 7 6
12 12 12 11 10 10 10 10 10 10 9 8 7 7 8 8 7 7 7 6 7 7 6 5 6 7 13 12 11 12 13 9 6 7 8 9 9 9 7 6 5 6
12 12 12 11 10 10 10 10 10 9 9 8 8 8 9 9 9 8 7 7 7 8 7 6 5 8 13 12 11 11 12 9 6 7 8 6 6 7 7 6 5 6
12 12 12 11 11 10 10 10 10 10 9 7 7 6 6 6 5 6 7 8 8 8 8 7 4 8 12 12 10 9 10 7 6 6 6 6 6 6 6 6 6 6
12 12 12 12 11 11 10 10 10 9 8 7 8 8 8 7 7 7 7 8 8 8 9 7 6 6 9 11 9 8 7 5 5 5 6 6 5 5 6 5 5 6
12 12 12 11 11 11 11 9 9 8 9 8 10 9 8 8 7 7 7 8 9 9 9 9 6 5 7 10 10 8 5 5 5 6 5 6 5 4 5 5 5 10
12 12 12 11 11 12 11 12 11 11 9 9 9 8 8 7 7 7 6 7 8 9 11 11 7 5 5 6 11 7 4 4 6 6 6 4 5 5 4 5 4 5
10 11 12 12 13 12 11 10 9 9 11 11 9 8 8 7 7 7 7 7 7 8 7 9 9 5 7 9 10 8 5 4 5 7 5 4 3 5 5 3 4 4
Wind_Direction
155 153 151 147 146 144 141 141 144 143 146 148 144 141 127 125 121 116 115 110 111 114 111 107 110 112 105 95 94 94 94 100 94 94 95 96 90 92 90 87 82 86
150 142 137 130 129 132 134 139 144 146 149 149 144 132 120 119 123 122 122 118 120 114 110 113 115 117 117 107 106 105 104 104 101 96 98 93 93 92 92 92 91 85
136 134 138 143 145 142 136 133 138 142 146 144 135 127 122 125 127 125 121 121 118 114 114 110 109 113 110 110 118 116 113 107 105 100 94 94 94 94 96 96 92 93
139 138 139 139 139 139 137 137 139 139 138 140 145 137 129 135 132 129 126 127 126 125 119 114 118 118 113 123 122 116 114 107 109 105 98 89 91 100 101 102 101 96
148 140 137 134 133 136 142 146 147 146 147 144 138 131 131 134 130 124 123 128 128 128 124 128 121 116 120 124 123 117 110 112 112 108 105 104 104 106 110 103 105 101
146 140 138 137 137 139 145 149 149 148 144 142 142 131 134 130 122 123 125 129 124 127 131 129 124 126 128 124 118 118 122 118 120 115 109 109 109 100 105 106 101 93
145 140 136 134 134 139 143 148 147 144 141 136 129 133 132 124 121 124 127 129 131 131 135 130 128 132 131 125 120 123 124 125 122 116 113 112 107 102 98 95 93 94
144 138 136 139 140 145 146 148 146 144 139 134 133 135 132 126 126 133 139 139 140 143 132 123 131 136 131 125 128 130 131 129 126 122 116 112 107 108 103 100 100 93
142 140 140 145 146 148 149 149 147 143 142 137 136 135 132 135 144 149 150 143 143 143 129 134 143 133 130 129 135 134 133 131 126 119 119 117 114 119 118 115 100 102
143 142 146 148 150 152 151 151 146 144 140 138 140 139 142 153 153 148 145 145 144 141 139 144 137 131 130 134 135 133 131 131 126 123 119 120 123 122 120 115 118 105
144 147 150 153 154 154 152 149 148 145 145 146 147 145 146 150 144 142 142 144 146 147 145 141 138 134 133 132 129 129 131 130 130 127 126 127 128 129 124 120 116 117
148 150 155 156 154 152 152 152 150 149 147 152 154 144 147 146 143 145 147 148 149 149 143 141 138 136 135 135 135 133 133 133 127 123 124 120 117 113 109 100 91 83
151 154 152 152 153 152 151 152 153 151 149 154 152 147 151 149 147 145 150 150 153 147 145 142 140 135 134 136 136 139 135 126 124 119 114 112 105 92 81 81 82 81
152 150 149 149 149 151 151 152 150 149 149 149 143 151 155 156 153 150 155 150 151 148 147 141 139 137 138 141 141 137 131 128 126 119 113 101 90 86 86 84 85 84
146 145 144 145 148 150 150 151 151 149 149 146 147 152 157 157 150 148 149 146 146 145 145 143 142 147 149 147 138 136 131 129 125 120 115 108 97 90 88 87 85 88
144 144 146 146 150 155 155 152 151 150 149 149 151 155 156 151 145 148 145 147 147 146 144 144 146 148 151 144 143 140 137 131 125 122 119 112 109 103 94 97 103 105
143 147 150 153 156 156 155 153 153 148 147 148 150 153 153 147 143 146 142 146 144 145 145 146 148 150 145 142 140 137 133 133 132 129 118 116 120 120 120 116 106 102
145 149 154 157 157 159 156 154 148 143 146 149 149 149 148 140 144 148 143 144 137 137 129 132 137 146 145 144 142 138 137 137 136 129 126 125 127 127 133 138 141 141
147 152 156 160 161 158 155 152 146 143 147 148 154 152 141 143 151 141 148 143 136 127 126 128 126 147 139 139 140 142 142 138 138 132 131 135 137 146 156 159 156 144
151 155 159 161 159 157 154 152 147 148 151 152 148 143 146 146 145 145 147 142 134 130 130 131 130 151 132 131 135 145 148 140 141 139 141 150 157 152 155 158 158 154
155 158 161 160 160 157 154 153 149 146 147 149 148 151 153 157 154 150 149 137 131 132 130 133 138 150 132 131 134 141 148 141 144 143 146 148 147 154 163 164 162 152
158 160 161 162 161 159 156 154 152 148 145 143 138 135 133 126 125 133 140 136 139 137 132 131 140 160 138 134 130 131 138 140 144 145 143 144 153 162 160 162 160 157
158 158 162 163 162 159 158 155 150 143 139 141 141 146 145 147 151 148 145 135 139 139 137 141 151 183 150 132 126 125 123 136 136 126 136 147 158 161 157 154 157 158
158 160 162 163 162 162 159 155 151 149 153 153 152 153 153 154 149 143 141 135 142 146 147 147 158 170 168 135 127 124 125 140 138 133 141 143 142 129 116 118 130 145
159 160 160 162 166 167 165 163 162 160 156 154 155 151 146 142 141 143 135 128 142 146 152 148 150 157 162 147 121 105 109 132 137 134 135 140 132 120 114 111 85 108
152 157 164 168 172 173 173 164 158 155 160 159 156 148 145 145 141 147 136 133 142 142 139 130 131 172 175 170 137 118 85 109 127 129 141 150 136 137 134 129 117 108